Previsão horária em Plotichno

Hoje, 9 Março, Terça-feira

Tempo Temperatura Precipitação Vento Pressão Humidade
00:00 -14°C° 0 mm 2 m/s 743 mmHg 94%
01:00 -13°C° 0 mm 1 m/s 744 mmHg 95%
02:00 -13°C° 0 mm 1 m/s 744 mmHg 97%
03:00 -13°C° 0 mm 1 m/s 745 mmHg 97%
04:00 -13°C° 0 mm 1 m/s 745 mmHg 97%
05:00 -13°C° 0 mm 1 m/s 745 mmHg 96%
06:00 -15°C° 0 mm 2 m/s 746 mmHg 94%
07:00 -14°C° 0 mm 2 m/s 746 mmHg 92%
08:00 -14°C° 0 mm 2 m/s 746 mmHg 90%
09:00 -13°C° 0 mm 2 m/s 747 mmHg 86%
10:00 -12°C° 0 mm 2 m/s 747 mmHg 82%
11:00 -10°C° 0 mm 2 m/s 747 mmHg 78%
12:00 -9°C° 0 mm 2 m/s 747 mmHg 76%
13:00 -9°C° 0 mm 2 m/s 747 mmHg 74%
14:00 -8°C° 0 mm 2 m/s 747 mmHg 72%
15:00 -9°C° 0 mm 2 m/s 748 mmHg 75%
16:00 -8°C° 0 mm 1 m/s 748 mmHg 78%
17:00 -8°C° 0 mm 1 m/s 748 mmHg 82%
18:00 -9°C° 0 mm 1 m/s 748 mmHg 84%
19:00 -9°C° 0 mm 1 m/s 748 mmHg 86%
20:00 -10°C° 0 mm 0 m/s 749 mmHg 88%
21:00 -10°C° 0.1 mm 1 m/s 748 mmHg 89%
22:00 -10°C° 0.1 mm 1 m/s 748 mmHg 91%
23:00 -12°C° 0.1 mm 2 m/s 748 mmHg 93%

Amanhã, 10 Março, Quarta-feira

Tempo Temperatura Precipitação Vento Pressão Humidade
00:00 -12°C° 0.6 mm 2 m/s 749 mmHg 93%
01:00 -13°C° 0.6 mm 3 m/s 749 mmHg 93%
02:00 -13°C° 0.6 mm 3 m/s 749 mmHg 94%
03:00 -13°C° 0.5 mm 3 m/s 749 mmHg 94%
04:00 -14°C° 0.5 mm 3 m/s 749 mmHg 94%
05:00 -14°C° 0.5 mm 3 m/s 748 mmHg 94%
06:00 -16°C° 0.3 mm 4 m/s 749 mmHg 93%
07:00 -16°C° 0.3 mm 4 m/s 749 mmHg 92%
08:00 -16°C° 0.3 mm 4 m/s 750 mmHg 91%
09:00 -16°C° 0.1 mm 4 m/s 750 mmHg 89%
10:00 -16°C° 0.1 mm 4 m/s 750 mmHg 86%
11:00 -15°C° 0.1 mm 4 m/s 751 mmHg 83%
12:00 -15°C° 0 mm 4 m/s 751 mmHg 80%
13:00 -14°C° 0 mm 4 m/s 751 mmHg 77%
14:00 -12°C° 0 mm 3 m/s 751 mmHg 74%
15:00 -13°C° 0 mm 3 m/s 752 mmHg 75%
16:00 -14°C° 0 mm 3 m/s 752 mmHg 77%
17:00 -15°C° 0 mm 3 m/s 752 mmHg 78%
18:00 -16°C° 0 mm 3 m/s 752 mmHg 80%
19:00 -17°C° 0 mm 3 m/s 753 mmHg 83%
20:00 -19°C° 0 mm 3 m/s 753 mmHg 85%
21:00 -19°C° 0 mm 3 m/s 753 mmHg 86%
22:00 -21°C° 0 mm 3 m/s 753 mmHg 87%
23:00 -22°C° 0 mm 3 m/s 754 mmHg 88%

Depois de amanhã, 11 Março, Quinta-feira

Tempo Temperatura Precipitação Vento Pressão Humidade
00:00 -22°C° 0 mm 3 m/s 754 mmHg 88%
01:00 -22°C° 0 mm 3 m/s 754 mmHg 88%
02:00 -23°C° 0 mm 3 m/s 754 mmHg 88%
03:00 -23°C° 0 mm 3 m/s 754 mmHg 89%
04:00 -23°C° 0 mm 3 m/s 754 mmHg 89%
05:00 -23°C° 0 mm 3 m/s 754 mmHg 89%
06:00 -23°C° 0 mm 3 m/s 754 mmHg 88%
07:00 -22°C° 0 mm 3 m/s 754 mmHg 86%
08:00 -21°C° 0 mm 3 m/s 754 mmHg 84%
09:00 -19°C° 0 mm 3 m/s 754 mmHg 81%
10:00 -17°C° 0 mm 3 m/s 754 mmHg 78%
11:00 -15°C° 0 mm 3 m/s 754 mmHg 75%
12:00 -13°C° 0 mm 3 m/s 753 mmHg 75%
13:00 -12°C° 0 mm 4 m/s 753 mmHg 76%
14:00 -11°C° 0 mm 4 m/s 753 mmHg 76%
15:00 -11°C° 0 mm 4 m/s 752 mmHg 79%
16:00 -11°C° 0 mm 4 m/s 752 mmHg 82%
17:00 -12°C° 0 mm 3 m/s 751 mmHg 85%
18:00 -14°C° 0 mm 4 m/s 751 mmHg 87%
19:00 -15°C° 0 mm 4 m/s 751 mmHg 89%
20:00 -16°C° 0 mm 4 m/s 751 mmHg 91%
21:00 -16°C° 0 mm 4 m/s 750 mmHg 91%
22:00 -17°C° 0 mm 4 m/s 750 mmHg 92%
23:00 -17°C° 0 mm 4 m/s 750 mmHg 92%

12 Março, Sexta-feira

Tempo Temperatura Precipitação Vento Pressão Humidade
00:00 -17°C° 0 mm 4 m/s 749 mmHg 92%
01:00 -17°C° 0 mm 4 m/s 749 mmHg 92%
02:00 -18°C° 0 mm 5 m/s 748 mmHg 92%
03:00 -18°C° 0 mm 5 m/s 748 mmHg 92%
04:00 -18°C° 0 mm 5 m/s 747 mmHg 91%
05:00 -18°C° 0 mm 5 m/s 746 mmHg 90%
06:00 -18°C° 0 mm 6 m/s 746 mmHg 86%
07:00 -17°C° 0 mm 6 m/s 745 mmHg 82%
08:00 -16°C° 0 mm 6 m/s 744 mmHg 79%
09:00 -14°C° 0 mm 6 m/s 744 mmHg 77%
10:00 -13°C° 0 mm 7 m/s 743 mmHg 76%
11:00 -11°C° 0 mm 7 m/s 743 mmHg 75%
12:00 -11°C° 0.2 mm 7 m/s 742 mmHg 80%
13:00 -9°C° 0.2 mm 7 m/s 742 mmHg 84%
14:00 -8°C° 0.2 mm 8 m/s 741 mmHg 89%
15:00 -8°C° 0.4 mm 7 m/s 741 mmHg 90%
16:00 -8°C° 0.4 mm 7 m/s 740 mmHg 90%
17:00 -7°C° 0.4 mm 7 m/s 740 mmHg 91%
18:00 -7°C° 0.2 mm 7 m/s 739 mmHg 91%
19:00 -6°C° 0.2 mm 6 m/s 739 mmHg 91%
20:00 -8°C° 0.2 mm 6 m/s 739 mmHg 91%
21:00 -8°C° 0.2 mm 6 m/s 739 mmHg 92%
22:00 -7°C° 0.2 mm 5 m/s 739 mmHg 93%
23:00 -7°C° 0.2 mm 5 m/s 738 mmHg 93%

13 Março, Sábado

Tempo Temperatura Precipitação Vento Pressão Humidade
00:00 -7°C° 0.4 mm 4 m/s 738 mmHg 94%
01:00 -7°C° 0.4 mm 4 m/s 738 mmHg 95%
02:00 -7°C° 0.4 mm 4 m/s 738 mmHg 95%
03:00 -5°C° 0.3 mm 3 m/s 738 mmHg 95%
04:00 -5°C° 0.3 mm 3 m/s 738 mmHg 96%
05:00 -4°C° 0.3 mm 2 m/s 738 mmHg 96%
06:00 -4°C° 0.1 mm 2 m/s 739 mmHg 96%
07:00 -3°C° 0.1 mm 2 m/s 739 mmHg 96%
08:00 -4°C° 0.1 mm 3 m/s 739 mmHg 95%
09:00 -2°C° 0 mm 3 m/s 739 mmHg 94%
10:00 -1°C° 0 mm 3 m/s 740 mmHg 93%
11:00 0°C° 0 mm 3 m/s 740 mmHg 92%
12:00 0°C° 0 mm 3 m/s 740 mmHg 93%
13:00 -1°C° 0 mm 4 m/s 740 mmHg 94%
14:00 0°C° 0 mm 4 m/s 740 mmHg 95%
15:00 -1°C° 0 mm 4 m/s 740 mmHg 94%
16:00 -1°C° 0 mm 4 m/s 740 mmHg 93%
17:00 -1°C° 0 mm 4 m/s 739 mmHg 93%
18:00 -1°C° 0 mm 4 m/s 739 mmHg 92%
19:00 -1°C° 0 mm 4 m/s 739 mmHg 92%
20:00 -1°C° 0 mm 5 m/s 739 mmHg 91%
21:00 -1°C° 0 mm 5 m/s 739 mmHg 92%
22:00 -1°C° 0 mm 4 m/s 739 mmHg 94%
23:00 -1°C° 0 mm 4 m/s 739 mmHg 95%

14 Março, Domingo

Tempo Temperatura Precipitação Vento Pressão Humidade
00:00 -1°C° 0.8 mm 4 m/s 738 mmHg 96%
01:00 -1°C° 0.8 mm 4 m/s 738 mmHg 97%
02:00 0°C° 0.8 mm 3 m/s 738 mmHg 97%
03:00 -1°C° 0 mm 3 m/s 738 mmHg 97%
04:00 -1°C° 0 mm 3 m/s 738 mmHg 96%
05:00 -1°C° 0 mm 3 m/s 738 mmHg 95%
06:00 -1°C° 0 mm 3 m/s 738 mmHg 94%
07:00 -2°C° 0 mm 4 m/s 738 mmHg 93%
08:00 -2°C° 0 mm 4 m/s 738 mmHg 92%
09:00 -1°C° 0 mm 5 m/s 738 mmHg 93%
10:00 -1°C° 0 mm 5 m/s 738 mmHg 94%
11:00 0°C° 0 mm 5 m/s 738 mmHg 95%
12:00 0°C° 0.1 mm 5 m/s 738 mmHg 95%
13:00 0°C° 0.1 mm 5 m/s 737 mmHg 96%
14:00 0°C° 0.1 mm 5 m/s 737 mmHg 96%
15:00 0°C° 0 mm 5 m/s 737 mmHg 96%
16:00 0°C° 0 mm 4 m/s 737 mmHg 96%
17:00 0°C° 0 mm 4 m/s 737 mmHg 96%
18:00 0°C° 0.1 mm 4 m/s 737 mmHg 96%
19:00 0°C° 0.1 mm 4 m/s 737 mmHg 96%
20:00 0°C° 0.1 mm 4 m/s 737 mmHg 96%
21:00 +1°C° 0.4 mm 4 m/s 736 mmHg 96%
22:00 +1°C° 0.4 mm 4 m/s 736 mmHg 96%
23:00 +1°C° 0.4 mm 5 m/s 736 mmHg 96%
Mostrar mais

Necessitamos do seu Consentimento

A Meteoprog e os seus Fornecedores de Serviços podem armazenar e aceder a dados pessoais como cookies, identificadores do dispositivo ou outras tecnologias semelhantes existentes no seu dispositivo e processar estes dados para personalizar conteúdos e anúncios, assim como funcionalidades nas redes sociais e análise de tráfego.

  • Armazenar e/ou aceder a informações no seu dispositivo

    Os cookies, identificadores do dispositivo ou outras informações podem ser armazenados ou acedidos no seu dispositivo, para os fins acima indicados.

  • Anúncios e conteúdos personalizados, medição de anúncios e conteúdos, dados sobre o público-alvo e desenvolvimento de produtos

    Os anúncios e os conteúdos podem ser personalizados com base num perfil. Podem ser adicionados dados adicionais para uma maior personalização dos anúncios e dos conteúdos. A eficácia dos anúncios e dos conteúdos pode ser medida. Podem ser obtidas informações sobre o público que visualizou os anúncios e os conteúdos. Estes dados podem ser usados para desenvolver ou melhorar sistemas, softwares ou a experiência do utilizador.

Ao clicar em "Eu concordo”, permitirá o uso de cookies, identificadores do dispositivo e web beacons mencionados ou outras tecnologias semelhantes. As configurações do navegador do seu dispositivo podem ser alteradas.

Para certos fins, podem ser invocados interesses legítimos ao invés de consentimento. Pode ler mais informação sobre este assunto na nossa Política de Privacidade e Cookies.